TimeCDT,TemperatureF,Dew PointF,Humidity,Sea Level PressureIn,VisibilityMPH,Wind Direction,Wind SpeedMPH,Gust SpeedMPH,PrecipitationIn,Events,Conditions,WindDirDegrees,DateUTC
12:12 AM,32.0,20.3,62,30.20,10.0,West,3.5,-,N/A,,Overcast,280,2013-03-26 05:12:00
12:32 AM,32.5,20.5,61,30.20,10.0,WNW,3.5,-,N/A,,Overcast,290,2013-03-26 05:32:00
12:52 AM,32.9,20.8,61,30.20,10.0,WNW,5.8,-,N/A,,Overcast,300,2013-03-26 05:52:00
1:12 AM,32.0,20.8,63,30.21,10.0,West,4.6,-,N/A,,Overcast,280,2013-03-26 06:12:00
1:32 AM,32.0,21.2,64,30.22,10.0,West,4.6,-,N/A,,Overcast,270,2013-03-26 06:32:00
1:52 AM,31.6,21.4,66,30.22,10.0,WNW,4.6,-,N/A,,Overcast,290,2013-03-26 06:52:00
2:12 AM,31.5,21.9,68,30.22,10.0,West,5.8,-,N/A,,Overcast,280,2013-03-26 07:12:00
2:33 AM,31.5,21.9,68,30.22,10.0,WNW,6.9,-,N/A,,Overcast,290,2013-03-26 07:33:00
2:52 AM,31.1,21.9,69,30.22,10.0,WNW,4.6,-,N/A,,Overcast,290,2013-03-26 07:52:00
3:12 AM,31.1,21.9,69,30.22,10.0,WNW,4.6,-,N/A,,Overcast,290,2013-03-26 08:12:00
3:33 AM,31.1,21.9,69,30.22,10.0,WNW,4.6,-,N/A,,Overcast,300,2013-03-26 08:33:00
3:52 AM,31.1,21.7,68,30.22,10.0,WNW,4.6,-,N/A,,Overcast,300,2013-03-26 08:52:00
4:12 AM,31.1,21.7,68,30.22,10.0,WNW,3.5,-,N/A,,Overcast,300,2013-03-26 09:12:00
4:32 AM,30.9,21.2,67,30.22,10.0,WNW,3.5,-,N/A,,Overcast,290,2013-03-26 09:32:00
4:52 AM,30.9,21.2,67,30.23,10.0,WNW,4.6,-,N/A,,Overcast,290,2013-03-26 09:52:00
5:12 AM,30.7,21.4,68,30.23,10.0,WNW,3.5,-,N/A,,Overcast,300,2013-03-26 10:12:00
5:32 AM,30.7,21.2,68,30.23,10.0,Calm,Calm,-,N/A,,Overcast,0,2013-03-26 10:32:00
5:52 AM,30.6,21.2,68,30.24,10.0,WNW,3.5,-,N/A,,Overcast,300,2013-03-26 10:52:00
6:13 AM,30.2,21.0,69,30.24,10.0,WNW,4.6,-,N/A,,Overcast,300,2013-03-26 11:13:00
6:32 AM,30.2,21.0,69,30.24,10.0,WNW,4.6,-,N/A,,Overcast,300,2013-03-26 11:32:00
6:52 AM,30.0,21.0,69,30.24,10.0,WNW,4.6,-,N/A,,Overcast,290,2013-03-26 11:52:00
7:12 AM,30.0,21.0,69,30.25,10.0,West,4.6,-,N/A,,Overcast,280,2013-03-26 12:12:00
7:32 AM,29.8,20.8,69,30.26,10.0,WNW,5.8,-,N/A,,Overcast,290,2013-03-26 12:32:00
7:52 AM,29.7,20.8,70,30.26,10.0,WNW,4.6,-,N/A,,Overcast,290,2013-03-26 12:52:00
8:12 AM,30.0,20.7,68,30.27,10.0,WNW,5.8,-,N/A,,Overcast,300,2013-03-26 13:12:00
8:32 AM,29.7,21.0,70,30.27,10.0,WNW,4.6,-,N/A,,Overcast,290,2013-03-26 13:32:00
8:53 AM,29.8,21.2,70,30.27,10.0,WNW,4.6,-,N/A,,Overcast,290,2013-03-26 13:53:00
9:12 AM,30.2,21.0,69,30.28,10.0,WNW,5.8,-,N/A,,Overcast,290,2013-03-26 14:12:00
9:32 AM,30.7,21.4,68,30.28,10.0,West,4.6,-,N/A,,Overcast,280,2013-03-26 14:32:00
9:53 AM,30.9,21.2,67,30.28,10.0,West,4.6,-,N/A,,Overcast,280,2013-03-26 14:53:00
10:12 AM,31.5,21.2,66,30.28,10.0,West,3.5,-,N/A,,Overcast,280,2013-03-26 15:12:00
10:32 AM,32.0,21.6,65,30.29,10.0,West,5.8,-,N/A,,Overcast,280,2013-03-26 15:32:00
10:52 AM,32.5,21.7,64,30.29,10.0,Calm,Calm,-,N/A,,Overcast,0,2013-03-26 15:52:00
11:12 AM,33.1,21.7,63,30.28,10.0,WNW,4.6,-,N/A,,Overcast,290,2013-03-26 16:12:00
11:32 AM,33.8,21.9,62,30.28,10.0,West,3.5,-,N/A,,Overcast,280,2013-03-26 16:32:00
11:52 AM,34.7,22.1,60,30.28,10.0,WNW,3.5,-,N/A,,Overcast,290,2013-03-26 16:52:00
12:12 PM,35.6,22.3,58,30.28,10.0,NW,3.5,-,N/A,,Overcast,320,2013-03-26 17:12:00
12:32 PM,36.1,22.1,57,30.27,10.0,West,4.6,-,N/A,,Overcast,270,2013-03-26 17:32:00
12:52 PM,36.9,21.6,54,30.27,10.0,West,8.1,-,N/A,,Mostly Cloudy,270,2013-03-26 17:52:00
1:12 PM,37.6,21.0,51,30.27,10.0,West,5.8,-,N/A,,Scattered Clouds,280,2013-03-26 18:12:00
1:32 PM,38.3,20.5,49,30.26,10.0,NW,9.2,-,N/A,,Scattered Clouds,310,2013-03-26 18:32:00
1:52 PM,37.8,19.9,49,30.26,10.0,Calm,Calm,-,N/A,,Overcast,0,2013-03-26 18:52:00
2:12 PM,37.8,19.9,49,30.26,10.0,NW,8.1,-,N/A,,Overcast,320,2013-03-26 19:12:00
2:32 PM,37.9,20.1,49,30.26,10.0,WNW,5.8,-,N/A,,Overcast,290,2013-03-26 19:32:00
2:53 PM,37.8,21.2,51,30.26,10.0,West,6.9,-,N/A,,Overcast,260,2013-03-26 19:53:00
3:12 PM,37.6,21.2,52,30.26,10.0,West,8.1,-,N/A,,Overcast,260,2013-03-26 20:12:00
3:32 PM,37.6,21.2,52,30.26,10.0,West,9.2,-,N/A,,Overcast,260,2013-03-26 20:32:00
3:53 PM,37.4,21.9,54,30.26,10.0,West,10.4,-,N/A,,Overcast,260,2013-03-26 20:53:00
4:12 PM,36.9,23.2,58,30.26,10.0,West,9.2,-,N/A,,Overcast,270,2013-03-26 21:12:00
4:33 PM,36.9,22.8,57,30.26,10.0,West,8.1,-,N/A,,Overcast,270,2013-03-26 21:33:00
4:52 PM,36.9,22.6,56,30.26,10.0,West,5.8,-,N/A,,Overcast,270,2013-03-26 21:52:00
5:12 PM,37.0,22.5,56,30.26,10.0,West,5.8,-,N/A,,Overcast,260,2013-03-26 22:12:00
5:32 PM,37.0,21.9,54,30.26,10.0,WSW,6.9,-,N/A,,Overcast,250,2013-03-26 22:32:00
5:52 PM,37.4,21.9,54,30.26,10.0,WSW,5.8,-,N/A,,Overcast,250,2013-03-26 22:52:00
6:13 PM,37.6,20.5,50,30.25,10.0,West,8.1,-,N/A,,Mostly Cloudy,260,2013-03-26 23:13:00
6:32 PM,37.9,20.1,49,30.25,10.0,West,5.8,-,N/A,,Mostly Cloudy,280,2013-03-26 23:32:00
6:53 PM,37.8,20.5,50,30.26,10.0,West,4.6,-,N/A,,Mostly Cloudy,260,2013-03-26 23:53:00
7:12 PM,37.4,20.1,50,30.26,10.0,West,4.6,-,N/A,,Mostly Cloudy,270,2013-03-27 00:12:00
7:32 PM,37.0,20.3,51,30.26,10.0,West,4.6,-,N/A,,Overcast,260,2013-03-27 00:32:00
7:52 PM,35.8,20.5,54,30.26,10.0,West,4.6,-,N/A,,Overcast,260,2013-03-27 00:52:00
8:12 PM,35.2,20.3,55,30.26,10.0,West,4.6,-,N/A,,Overcast,270,2013-03-27 01:12:00
8:32 PM,34.7,21.0,57,30.27,10.0,West,6.9,-,N/A,,Overcast,260,2013-03-27 01:32:00
8:52 PM,33.8,21.7,61,30.27,10.0,West,8.1,-,N/A,,Scattered Clouds,260,2013-03-27 01:52:00
9:12 PM,33.3,21.7,63,30.27,10.0,West,5.8,-,N/A,,Clear,260,2013-03-27 02:12:00
9:32 PM,32.7,21.9,64,30.28,10.0,West,5.8,-,N/A,,Clear,260,2013-03-27 02:32:00
9:52 PM,32.0,21.7,66,30.28,10.0,West,5.8,-,N/A,,Clear,260,2013-03-27 02:52:00
10:12 PM,31.8,21.6,66,30.28,10.0,West,4.6,-,N/A,,Clear,260,2013-03-27 03:12:00
10:33 PM,31.6,21.7,67,30.28,10.0,West,4.6,-,N/A,,Scattered Clouds,270,2013-03-27 03:33:00
10:52 PM,31.5,21.6,67,30.29,10.0,Calm,Calm,-,N/A,,Scattered Clouds,0,2013-03-27 03:52:00
11:12 PM,31.6,21.7,67,30.29,10.0,Calm,Calm,-,N/A,,Mostly Cloudy,0,2013-03-27 04:12:00
11:33 PM,31.5,21.6,67,30.29,10.0,Calm,Calm,-,N/A,,Overcast,0,2013-03-27 04:33:00
11:52 PM,31.6,21.7,67,30.30,10.0,Calm,Calm,-,N/A,,Overcast,0,2013-03-27 04:52:00